Weather History for Philip, SD

Change the Weather History Date:

Wednesday, April 24, 2013

  Actual Average Record
Temperature  
Mean Temperature 37 °F 49 °F  
Max Temperature 49 °F 64 °F 90 °F (2012)
Min Temperature 25 °F 35 °F 20 °F (1972)
Degree Days  
Heating Degree Days 28 16  
Month to date heating degree days 712 476  
Since 1 July heating degree days 6693 6779  
Cooling Degree Days 0 0  
Month to date cooling degree days 0 0  
Year to date cooling degree days 0 0  
Growing Degree Days 0 (Base 50)    
Moisture  
Dew Point 26 °F    
Average Humidity 60    
Maximum Humidity 85    
Minimum Humidity 34    
Precipitation  
Precipitation T in 0.08 in 0.51 in (2003)
Month to date precipitation 1.96 1.31  
Year to date precipitation 3.18 3.36  
Sea Level Pressure  
Sea Level Pressure 30.12 in    
Wind  
Wind Speed 15 mph (NW)    
Max Wind Speed 43 mph    
Max Gust Speed 49 mph    
Visibility 9 miles    
Events Rain , Snow    
T = Trace of Precipitation, MM = Missing Value Source: NWS Daily Summary

Daily Weather History Graph

Daily Weather History Graph

Search for Another Location

Airport:

Trip Planner

Search our weather history database for the weather conditions in past years. The results will help you decide how hot, cold, wet, or windy it might be!

Date:

Astronomy

Apr. 24, 2013 Rise Set
Actual Time 5:47 AM MDT 7:41 PM MDT
Civil Twilight 5:17 AM MDT 8:12 PM MDT
Nautical Twilight 4:39 AM MDT 8:50 PM MDT
Astronomical Twilight 3:58 AM MDT 9:32 PM MDT
Moon 6:46 PM MDT (4/24) 4:55 AM MDT (4/24)
Length of Visible Light 14h 55m
Length of Day
13h 53m
Waxing Gibbous, 98% of the Moon is Illuminated
Apr 24
Waxing Gibbous
Apr 25
Full
May 2
Last Quarter
May 9
New
May 17
First Quarter

Hourly Weather History & Observations

Time (MDT) Temp. Windchill Dew Point Humidity Pressure Visibility Wind Dir Wind Speed Gust Speed Precip Events Conditions
12:55 AM 26.1 °F 19.4 °F 21.9 °F 84% 30.15 in 10.0 mi West 5.8 mph - N/A   Clear
1:55 AM 27.0 °F 19.5 °F 21.0 °F 78% 30.12 in 10.0 mi West 6.9 mph - N/A   Clear
2:55 AM 27.0 °F 18.7 °F 21.9 °F 81% 30.10 in 10.0 mi WNW 8.1 mph - N/A   Clear
3:55 AM 28.0 °F 18.6 °F 23.0 °F 81% 30.08 in 10.0 mi WSW 10.4 mph - N/A   Clear
4:55 AM 28.9 °F 23.9 °F 24.1 °F 82% 30.08 in 10.0 mi NNW 4.6 mph - N/A   Mostly Cloudy
5:55 AM 28.0 °F 24.2 °F 24.1 °F 85% 30.08 in 10.0 mi WNW 3.5 mph - N/A   Partly Cloudy
6:55 AM 30.9 °F 21.2 °F 24.1 °F 76% 30.07 in 10.0 mi WSW 12.7 mph - N/A   Clear
7:55 AM 36.0 °F 27.1 °F 26.1 °F 67% 30.09 in 10.0 mi West 13.8 mph - N/A   Clear
8:55 AM 41.0 °F 31.1 °F 30.0 °F 65% 30.08 in 10.0 mi WNW 23.0 mph 35.7 mph N/A   Clear
9:55 AM 43.0 °F 32.5 °F 30.0 °F 60% 30.09 in 10.0 mi NW 29.9 mph 41.4 mph N/A   Partly Cloudy
10:55 AM 45.0 °F 34.9 °F 30.0 °F 56% 30.10 in 10.0 mi NW 32.2 mph 39.1 mph N/A   Partly Cloudy
11:36 AM 35.6 °F 23.0 °F 30.2 °F 81% 30.09 in 1.8 mi NW 27.6 mph 49.5 mph 0.00 in Snow Light Snow
11:46 AM 37.4 °F 24.6 °F 35.6 °F 93% 30.09 in 3.0 mi NW 32.2 mph 36.8 mph 0.00 in Snow Light Snow
11:55 AM 39.0 °F 27.8 °F 36.0 °F 89% 30.13 in 10.0 mi NW 26.5 mph 38.0 mph 0.00 in   Mostly Cloudy
12:04 PM 41.0 °F 30.5 °F 35.6 °F 81% 30.09 in 10.0 mi NW 26.5 mph 34.5 mph N/A   Scattered Clouds
12:55 PM 43.0 °F 31.5 °F 30.0 °F 60% 30.13 in 10.0 mi NW 36.8 mph 46.0 mph 0.00 in Rain Light Rain
1:55 PM 45.0 °F 36.0 °F 25.0 °F 46% 30.14 in 10.0 mi WNW 25.3 mph 36.8 mph 0.00 in   Overcast
2:55 PM 44.1 °F 34.8 °F 21.9 °F 42% 30.15 in 10.0 mi NW 25.3 mph 40.3 mph N/A   Overcast
3:55 PM 46.9 °F - 21.9 °F 37% 30.14 in 10.0 mi NW 29.9 mph 35.7 mph N/A   Scattered Clouds
4:55 PM 48.0 °F - 21.9 °F 36% 30.13 in 10.0 mi NW 24.2 mph 33.4 mph N/A   Mostly Cloudy
5:55 PM 46.9 °F - 21.9 °F 37% 30.13 in 10.0 mi WNW 19.6 mph 31.1 mph N/A   Scattered Clouds
6:55 PM 45.0 °F 37.9 °F 23.0 °F 42% 30.13 in 10.0 mi NW 16.1 mph - N/A   Mostly Cloudy
7:55 PM 36.0 °F 32.1 °F 23.0 °F 59% 30.15 in 10.0 mi NNW 4.6 mph - N/A   Clear
8:55 PM 35.1 °F 31.0 °F 24.1 °F 64% 30.17 in 10.0 mi NW 4.6 mph - N/A   Scattered Clouds
9:55 PM 33.1 °F - 24.1 °F 70% 30.17 in 10.0 mi Calm Calm - N/A   Clear
10:55 PM 30.0 °F - 24.1 °F 79% 30.16 in 10.0 mi Calm Calm - N/A   Clear
11:55 PM 27.0 °F - 23.0 °F 85% 30.17 in 10.0 mi Calm Calm - N/A   Clear